Notices

What's New in latest Release from April 7th, 2021:

- Updated Glossary, including Speed of Maximum Gust, and Total Hourly Precipitation

- Updated national and regional climate services offices contacts and prices information

- Addition of station inventory lists for 1981-2010, 1971-2000, and 1961-1990 Normals.

If you haven't already, please take our survey and provide feedback about our website: https://eccc.sondage-survey.ca/f/LanguageSelection.aspx?s=442ca660-fcf1-47c0-95a9-59707d6fd709

Hourly Data Report for October 02, 2017

VICTORIA UNIVERSITY CS
BRITISH COLUMBIA

48°27'25.200" N
123°18'16.600" W
60.10 m
1018598
71783
WYJ

Download Data

Hourly Data (October 2017)
Hourly Data Report for October 2, 2017
TIME
LST
Temp Definition
°C
Dew Point Definition
°C
Rel Hum Definition
%
Precip. Amount Definition
mm

Wind Dir Definition
10's deg

Wind Spd Definition
km/h
Visibility Definition
km
Stn Press Definition
kPa
Hmdx Definition


Wind Chill Definition


Weather Definition


00:00 6.6 5.6 93 0.0 28 2   101.32     LegendNANA
01:00 6.2 5.4 95 0.0 33 3   101.32     LegendNANA
02:00 7.2 5.5 89 0.0 29 3   101.31     LegendNANA
03:00 7.9 5.8 86 0.0 28 4   101.31     LegendNANA
04:00 9.8 6.4 79 0.0 30 7   101.33     LegendNANA
05:00 10.5 6.4 76 0.0 34 6   101.35     LegendNANA
06:00 10.3 6.7 79 0.0 32 6   101.36     LegendNANA
07:00 11.0 6.9 76 0.0 34 8   101.38     LegendNANA
08:00 11.7 6.8 72 0.0 34 9   101.40     LegendNANA
09:00 13.1 7.6 69 0.0 35 11   101.42     LegendNANA
10:00 14.2 7.7 65 0.0 35 12   101.44     LegendNANA
11:00 15.6 6.8 56 0.0 36 11   101.46     LegendNANA
12:00 16.4 6.1 50 0.0 35 15   101.47     LegendNANA
13:00 16.6 4.6 45 0.0 36 16   101.49     LegendNANA
14:00 17.2 3.8 41 0.0 35 10   101.48     LegendNANA
15:00 17.5 4.3 42 0.0 36 10   101.50     LegendNANA
16:00 16.9 1.5 35 0.0 33 10   101.51     LegendNANA
17:00 16.2 2.1 39 0.0 33 6   101.53     LegendNANA
18:00 12.8 5.0 59 0.0 25 4   101.56     LegendNANA
19:00 10.4 5.0 69 0.0 25 2   101.61     LegendNANA
20:00 8.9 4.5 74 0.0 26 3   101.67     LegendNANA
21:00 8.4 4.0 74 0.0 26 3   101.70     LegendNANA
22:00 8.2 2.5 67 0.0 31 3   101.74     LegendNANA
23:00 11.6 1.7 51 0.0 30 5   101.75     LegendNANA

Notes on Data Quality.

Legend

  • E = Estimated
  • M = Missing
  • NA = Not Available*
  • [empty] = Indicates an unobserved value
Date modified: